OBJECT B

Satellite information

Favourite Embed

Satellite Type and Status

UNKNOWNIN ORBIT

Key statistics

Satellite OBJECT B at a glance.

Uptime

434

Days in orbit

Revolutions

≈ 16.3

Per day

Orbit

SSO

Sun Synchronous Orbit

Inclination

97.4

Latest

Satellite identification and parameters

Extended collection of information and parameters for OBJECT B.

Object identification

Identified? True

Debris? False

Object name: OBJECT B

International designator: 2024-039B

Object number (NORAD): 59052

Object ID (CCSDS): 59052

Country: TO BE DETERMINED/UNKNOWN (TBD)

Current information (Y/N): Y

RCS size: SMALL

Orbital parameters

Period: 88.151 minutes

Inclination: 97.3937 deg

SMA: 6561.132 km

Apoapsis: 188.257 km

Periapsis: 177.737 km

RAAN: 103.4145 deg

Eccentricy: 0.0008017

Argument of periapsis: 203.366 deg

Mean anomaly: 156.7273 deg

Mean motion: 16.33558095 rev/day

Mean motion (dot): 0.06649241 rev/day2

B* drag term: 0.0010785 1/REarth

Two-line elements (TLE)

Creation date: May 8, 2025, 3:01 a.m.

Reference frame: TEME

Reference center: EARTH

Epoch: May 6, 2025, 9:02 p.m. UTC

TLE line 0: 0 OBJECT B

TLE line 1: 1 59052U 24039B 25126.87683107 .06649241 25553-5 10785-2 0 9995

TLE line 2: 2 59052 97.3937 103.4145 0008017 203.3660 156.7273 16.33558095 66711

Live tracking on map

Real-time ground track for satellite OBJECT B.

In-orbit conjunctions

There are no conjunctions computed for OBJECT B, at the moment. Check back to stay up to date, as we update our databases every day.

Go to all conjunctions

Associated space launch

Meteor-M satellites are a new generation of Russian meteorological satellites. Hitchhiking Payloads: SITRO-AIS 13-28, Zorkiy-2M-2, Pars 1 (Iran).

OBJECT B was lifted into orbit during the mission ‘Soyuz 2.1b/Fregat-M | Meteor-M No.2-4 & others’, on board a Soyuz 2.1b/Fregat-M space rocket.

The launch took place on Feb. 29, 2024, 5:43 a.m. from Cosmodrome Site 1S.

For more information about the launch, click the button.

Launch to space Soyuz 2.1b/Fregat-M | Meteor-M No.2-4 & others
Soyuz 2.1b/Fregat-M | Meteor-M No.2-4 & others

Agency: Russian Federal Space Agency (ROSCOSMOS)

Status: Launch Successful

Launch date: Feb. 29, 2024, 5:43 a.m. UTC

Rocket: Soyuz 2.1b/Fregat-M

Launch pad: Cosmodrome Site 1S

Location: Vostochny Cosmodrome, Siberia, Russian Federation

...

Latest news about this satellite

There are no fresh news available about this satellite. Check back as we update our databases every day.


Newsletter sign-up

Weekly statistics, charts and insights to help you stay on top of the space industry.